THOR ABLESTAR DEB, 753

Orbit data source: Space-Track

THOR ABLESTAR DEB, 753 is space debris in LEO originally from a launch on Thu, 05 Dec 1963 UTC launched from the Air Force Western Test Range (AFWTR). Debris objects in space refer to the collection of defunct objects orbiting the Earth. Examples of debris include non-operational satellites, rocket bodies, and fragments generated from explosions, collisions, or faulty payload assembly.

Loading next visibility...
THOR ABLESTAR DEB details
Identifier
753, 1963-049F
Orbit
LEO
Last TLE update1 day ago
Origin
Flag of USUSN BuWeps (US)
ManufacturerUnknown
MissionSpacecraft
Bus & MotorUnknown
MassUnknown
Launch date (UTC)
1963-12-05 (61 years ago)
Launch vehicleUnknown
Launch site
Air Force Western Test Range (AFWTR)
Object type
Payload
Rocket body
Debris
Shape & HBRUnknown
Radar Cross SectionSmall (<0.1 m²)

Expand to show TLE details & history

TLE from 1 day ago
0 THOR ABLESTAR DEB
1 00753U 63049F   25042.57282091  .00000347  00000-0  49160-3 0  9991
2 00753  89.9077  77.0859 0026910 185.6241 327.4034 13.54633224 14122
Epoch: 2025-02-11T13:44Z
Definitive object data (Epoch: 2025-02-11T13:44:51.726Z)
Latitude27.17504°
Longitude-91.05247°
Altitude1,041.803 km
Speed7.342 km/s
True Right ascension17h 08m 09s
True Declination27° 02' 27"
Sunlit
Object was in daylight at TLE epoch
Visualization TLE readout
Latitude-0.33663°
Longitude-91.01455°
Altitude1,038.273 km
Speed7.342 km/s
Apparent Right ascension16h 58m 54s
Apparent Declination-58° 30' 13"
Sunlit
Object is in daylight
Visualization observer readout
Local Sidereal Time17:13:08
Azimuth181.88° SSW
Elevation-8.465°
Doppler factor1
Orbital elements
Apogee altitude1,072.299 km
Perigee altitude1,032.308 km
Semi-major axis7,430.441 km
Eccentricity0.002691
Inclination89.9077°
RAAN77.0859°
Arg. of periapsis185.6241°
True anomaly327.23681°
Mean anomaly327.4034°
Eccentric anomaly327.32015°
Mean motion3.38861 °/min
BSTAR0.0004916
Orbital period106.24 mins
Loading maneuver chart data...
Loading historical data...
Loading historical data...
Loading historical data...
Loading historical data...
Loading historical data...
Loading historical data...
Loading historical data...

THOR ABLESTAR DEB Visibility forecast

Observer location: undefined°, undefined

Span
Click to sort rows by Start time (UTC) header in descending order
Start Az.
Max El. time (UTC)
Max El. Az.
Max El.
End time (UTC)
End Az.
5 mins2025-02-12 16:13:00.897Z314.146° NW2025-02-12 16:15:00.897Z294.5° NW14.618°2025-02-12 16:18:00.897Z264.372° W
11 mins2025-02-13 02:20:00.897Z168.231° S2025-02-13 02:25:00.897Z103.831° ESE44.097°2025-02-13 02:31:00.897Z1.809° NNE
5 mins2025-02-13 04:10:00.897Z262.239° W2025-02-13 04:12:00.897Z282.898° WNW15.82°2025-02-13 04:15:00.897Z312.592° NW
9 mins2025-02-13 13:29:00.897Z33.689° NE2025-02-13 13:33:00.897Z86.106° E27.263°2025-02-13 13:38:00.897Z141.689° SSE
|